This is the latest recevied weather packets stored in our database for station/object KC8UZG. If no packets are shown the sender has not sent any weather packets the latest 10 day(s).
| Time | Temp. | Humidity | Pressure | Rain* | Wind** | Luminosity | Snow |
|---|---|---|---|---|---|---|---|
| 1777695922 | 2.78° C | 99% | 1016.7 hPa | 0 mm | - | 0 W/m² | - |
| 1777695328 | 2.78° C | 99% | 1016.7 hPa | 0 mm | - | 0 W/m² | - |
| 1777694735 | 2.78° C | 98% | 1016.5 hPa | 0 mm | - | 0 W/m² | - |
| 1777694141 | 3.33° C | 98% | 1016.7 hPa | 0 mm | - | 0 W/m² | - |
| 1777693520 | 3.33° C | 97% | 1016.7 hPa | 0 mm | - | 0 W/m² | - |
| 1777692926 | 3.33° C | 96% | 1016.6 hPa | 0 mm | - | 0 W/m² | - |
| 1777692332 | 3.89° C | 96% | 1016.4 hPa | 0 mm | - | 0 W/m² | - |
| 1777691737 | 3.89° C | 95% | 1016.5 hPa | 0 mm | - | 0 W/m² | - |
| 1777691117 | 3.89° C | 95% | 1016.7 hPa | 0 mm | - | 0 W/m² | - |
| 1777690523 | 3.89° C | 94% | 1016.7 hPa | 0 mm | - | 0 W/m² | - |
| 1777689928 | 4.44° C | 93% | 1016.7 hPa | 0 mm | - | 0 W/m² | - |
| 1777689335 | 4.44° C | 92% | 1016.4 hPa | 0 mm | - | 0 W/m² | - |
| 1777688740 | 5° C | 92% | 1016.4 hPa | 0 mm | - | 0 W/m² | - |
| 1777688120 | 5° C | 92% | 1016.1 hPa | 0 mm | - | 0 W/m² | - |
| 1777687526 | 4.44° C | 90% | 1016 hPa | 0 mm | - | 0 W/m² | - |
| 1777686931 | 5° C | 89% | 1015.8 hPa | 0 mm | - | 0 W/m² | - |
| 1777686337 | 5.56° C | 87% | 1015.7 hPa | 0 mm | - | 0 W/m² | - |
| 1777685718 | 6.11° C | 84% | 1015.4 hPa | 0 mm | - | 0 W/m² | - |
| 1777685122 | 6.67° C | 81% | 1015.3 hPa | 0 mm | - | 0 W/m² | - |
| 1777684528 | 7.22° C | 79% | 1015.3 hPa | 0 mm | - | 0 W/m² | - |
| 1777683934 | 7.22° C | 77% | 1015.2 hPa | 0 mm | - | 0 W/m² | - |
| 1777683340 | 7.22° C | 76% | 1015 hPa | 0 mm | - | 0 W/m² | - |
| 1777682720 | 7.78° C | 75% | 1014.6 hPa | 0 mm | - | 0 W/m² | - |
| 1777682125 | 8.33° C | 74% | 1014.5 hPa | 0 mm | - | 0 W/m² | - |
| 1777681531 | 8.89° C | 73% | 1014.6 hPa | 0 mm | - | 0 W/m² | - |
* Rain latest hour (hover to see other rain measurements)
** Current wind speed in m/s (hover to see current wind gust speed)